TIME,DELAY(SENSOR),PRES,T(CTD),SAL,OXYGEN,RAWTEMP,T(OPTODE),TCPHASE,FLUOR,BETA(BETA700),BETA(BETA412),BETA(BETA440),CDOM,C(CSC),ED(ED411.90),ED(ED443.80),ED(ED489.40),ED(ED554.70),LU(LU412.20),LU(LU443.80),LU(LU489.40),LU(LU555.00),COMP,TILTX,TILTX(TILTY),CHECK
1349364103,5806,496.7600097656250000,17.1126003265380860,36.3908996582031250,226.1560974121093800,199.0117950439453000,17.1117401123046880,32.3417701721191400,50,104,73,83,64,7933,2147482971,2147767497,2147560320,2147796873,2147303981,2147472868,2147713316,2148246537,1188,7,13,32068
1349364242,5804,485.4100036621094000,17.2360992431640620,36.4155998229980500,228.3677978515625000,195.0612945556640600,17.2319107055664060,32.1758689880371100,50,104,75,83,62,7938,2147487049,2147767670,2147560237,2147795776,2147310253,2147475337,2147708672,2148246070,1197,7,12,41071
1349364383,5805,474.1300048828125000,17.3665008544921880,36.4407005310058600,230.3493957519531200,190.7238006591797000,17.3638591766357420,32.0174903869628900,50,105,75,83,64,7943,2147484617,2147766107,2147557988,2147795657,2147312941,2147474441,2147708288,2148244224,985,7,12,41119
1349364522,5803,463.1300048828125000,17.4549007415771500,36.4580993652343750,230.9183044433593800,187.8144989013672000,17.4523792266845700,31.9496192932128900,50,105,73,83,63,7950,2147487853,2147765723,2147559753,2147797860,2147307209,2147475602,2147712064,2148246546,890,7,13,13112
1349364658,5804,451.8699951171875000,17.5652999877929700,36.4775009155273440,231.8363952636718800,184.2113952636718800,17.5620307922363280,31.8553009033203120,50,106,74,84,63,7952,2147486262,2147765430,2147559268,2147796379,2147311378,2147477906,2147711113,2148244022,581,7,12,9775
1349364774,5807,440.3399963378906000,17.6536998748779300,36.4917984008789060,232.7315979003906200,181.1529998779297000,17.6550998687744140,31.7700595855712900,49,106,74,83,63,7954,2147490614,2147766189,2147558235,2147792091,2147308096,2147477229,2147709814,2148242742,86,7,13,51405
1349364889,5805,428.2799987792969000,17.7273998260498050,36.5047988891601560,232.3831024169922000,178.6479034423828000,17.7313499450683600,31.7529296875000000,49,105,75,82,62,7956,2147487670,2147768100,2147560731,2147791661,2147310326,2147477531,2147708690,2148243968,423,7,12,60202
1349364994,5803,417.3099975585937500,17.8425998687744140,36.5271987915039060,234.8784027099609400,175.1361999511718800,17.8382492065429700,31.5841808319091800,50,105,74,82,62,7964,2147487689,2147764864,2147556196,2147793353,2147308397,2147472256,2147707190,2148245366,185,8,12,48400
1349365109,5804,405.2399902343750000,17.9037990570068360,36.5371017456054700,235.7599029541015600,173.1029052734375000,17.9001502990722660,31.5143394470214840,50,105,74,83,61,7964,2147490313,2147768082,2147556324,2147795867,2147313225,2147477037,2147709476,2148244534,3536,7,12,49918
1349365224,5806,393.1199951171875000,17.9528999328613280,36.5423011779785160,235.1419982910156200,171.4765014648437500,17.9496707916259770,31.5221595764160160,50,106,74,83,63,7968,2147487744,2147766381,2147561435,2147792356,2147308790,2147475602,2147708717,2148242770,181,7,12,13163
1349365342,5802,381.9700012207031000,18.0083007812500000,36.5522003173828100,235.6564025878906200,169.6923065185547000,18.0039997100830080,31.4733200073242200,50,106,74,83,62,7972,2147486966,2147769197,2147557284,2147792009,2147312164,2147476425,2147708406,2148245357,3541,7,12,63617
1349365469,5805,371.6400146484375000,18.0585002899169920,36.5601005554199200,235.9111022949218800,167.9234008789062500,18.0578708648681640,31.4373607635498050,50,105,74,83,62,7974,2147490404,2147767021,2147561572,2147790235,2147301220,2147476937,2147708461,2148242432,3526,7,13,11628
1349365610,5803,359.9400024414062500,18.0979995727539060,36.5653991699218750,235.8074035644531200,166.6985931396484400,18.0951690673828120,31.4257297515869140,50,107,74,83,61,7978,2147491136,2147765714,2147559616,2147789677,2147311780,2147477833,2147706185,2148244589,110,7,12,12383
1349365737,5802,349.2000122070312500,18.1385002136230470,36.5693016052246100,235.1707000732422000,165.3072052001953000,18.1375503540039060,31.4376201629638670,50,106,74,85,61,7981,2147487899,2147766061,2147560128,2147792329,2147312484,2147478043,2147707446,2148244105,262,7,12,51686
1349365864,5805,338.3500061035156000,18.2007999420166000,36.5774002075195300,234.9765014648437500,163.3309020996093800,18.1977500915527340,31.4205398559570300,50,105,74,83,61,7984,2147490240,2147768576,2147561051,2147792036,2147303844,2147479067,2147707090,2148241033,3597,7,12,54697
1349365993,5804,327.1300048828125000,18.2373008728027340,36.5803985595703100,234.0605010986328000,162.0874938964843800,18.2356204986572270,31.4479808807373050,50,105,73,82,61,7987,2147490112,2147765714,2147566729,2147792118,2147308278,2147478180,2147707867,2148243648,3518,7,12,25139
1349366120,5804,316.1400146484375000,18.2914009094238280,36.5857009887695300,233.5798034667968800,160.3061065673828000,18.2898902893066400,31.4471302032470700,49,107,74,84,62,7990,2147491849,2147767808,2147564800,2147790692,2147305024,2147478564,2147708900,2148241874,3149,7,12,13783
1349366249,5804,305.2699890136719000,18.3717002868652340,36.5931015014648440,232.4492950439453000,157.7462005615234400,18.3678894042968750,31.4675693511962900,50,109,73,83,62,7993,2147490779,2147767478,2147574637,2147792521,2147307510,2147480768,2147717174,2148244900,3017,7,12,17415
1349366388,5801,294.2799987792969000,18.4549007415771500,36.6001014709472660,231.1753997802734400,155.0200042724609400,18.4509696960449220,31.4932308197021500,50,107,74,82,63,7997,2147487789,2147771035,2147579958,2147790464,2147314953,2147480109,2147721773,2148244672,2422,7,12,28944
1349366560,5806,281.0599975585937500,18.5380992889404300,36.6082992553710940,229.7346038818359400,152.1396026611328000,18.5387592315673830,31.5251102447509770,50,107,74,84,62,8003,2147492004,2147772032,2147582857,2147792283,2147310226,2147479936,2147722075,2148240859,38,7,12,39721
1349366683,5805,269.8099975585937500,18.6394004821777340,36.6133003234863300,228.0446014404297000,148.9868011474609400,18.6348800659179700,31.5664196014404300,50,106,74,82,63,8010,2147489554,2147774299,2147605668,2147789531,2147305901,2147484086,2147736832,2148241298,259,7,12,29075
1349366798,5804,259.4200134277344000,18.7385997772216800,36.6170997619628900,227.0231933593750000,145.6109008789062500,18.7378196716308600,31.5719299316406250,50,106,74,85,62,8011,2147492973,2147777261,2147608429,2147792164,2147305252,2147485897,2147737965,2148244918,343,7,12,36135
1349366927,5802,248.1900024414062500,18.8661994934082030,36.6192016601562500,226.9859008789062500,141.3894958496093800,18.8665695190429700,31.5171298980712900,50,105,74,83,62,8013,2147492041,2147791085,2147645504,2147787812,2147308809,2147490441,2147754944,2148242806,3202,7,12,24474
1349367054,5803,237.2400054931640600,18.9916992187500000,36.6216011047363300,227.3587951660156200,137.4561004638672000,18.9865798950195300,31.4458408355712900,50,108,73,83,63,8019,2147495533,2147797668,2147674651,2147789869,2147316361,2147499008,2147773796,2148243026,3550,7,12,10987
1349367183,5804,225.9100036621093800,19.1739997863769530,36.6353988647460940,228.0211944580078000,131.1683044433593800,19.1784896850585940,31.3293800354003900,50,107,74,83,62,8026,2147496256,2147807945,2147685769,2147788278,2147315401,2147503250,2147780973,2148244443,253,7,12,42740
1349367298,5805,215.5700073242187500,19.1562995910644530,36.5937004089355500,232.9635925292968800,131.8097991943359400,19.1589107513427730,31.0969104766845700,50,108,74,83,62,8029,2147502838,2147821138,2147721216,2147787593,2147308242,2147513636,2147793005,2148246253,490,7,12,5822
1349367425,5808,204.0399932861328000,19.2073993682861330,36.5768013000488300,240.6564025878906200,130.3318023681640600,19.2040290832519530,30.7143192291259770,50,109,73,83,61,8030,2147505289,2147871680,2147851776,2147791716,2147312100,2147543981,2147871643,2148247844,254,8,12,21643
1349367500,5806,197.4799957275390600,19.2562999725341800,36.5787010192871100,244.3699035644531200,128.7904968261718800,19.2510890960693360,30.5238609313964840,50,107,73,82,61,8033,2147509485,2147900672,2147935478,2147789028,2147306541,2147569472,2147917193,2148252077,101,7,12,30404
1349367555,5803,193.0700073242187500,19.2569999694824220,36.5717010498046900,244.4232025146484400,128.8583984375000000,19.2490196228027340,30.5224800109863280,50,107,74,84,61,8033,2147514861,2147928054,2147996443,2147785353,2147315282,2147585133,2147955510,2148250541,3594,7,12,16100
1349367610,5801,188.7599945068359400,19.2217006683349600,36.5458984375000000,245.0375976562500000,129.7221984863281200,19.2226390838623050,30.5056800842285160,52,110,73,84,61,8034,2147515593,2147945042,2148038354,2147789659,2147312438,2147590976,2147970907,2148255780,3375,7,12,22064
1349367665,5804,184.5599975585937500,19.2523994445800780,36.5472984313964840,245.1663055419922000,128.6683959960937500,19.2548294067382800,30.4861106872558600,52,111,75,83,61,8034,2147511606,2147871177,2147833901,2147791424,2147311341,2147553069,2147865609,2148246262,3340,7,12,33432
1349367720,5803,180.4600067138672000,19.3262004852294920,36.5616989135742200,245.1773986816406200,126.5143966674804700,19.3206005096435550,30.4576492309570300,51,109,74,83,61,8035,2147529892,2147994148,2148159926,2147788397,2147326601,2147624996,2148036964,2148258313,3447,7,12,29976
1349367775,5804,176.4400024414062500,19.3390998840332030,36.5623016357421900,245.2212066650390600,125.4434967041015600,19.3533096313476560,30.4415397644042970,53,113,73,84,61,8034,2147541092,2148039981,2148256393,2147788571,2147330294,2147652598,2148099163,2148261430,3561,7,12,35988
1349367853,5803,171.4900054931640600,19.4664993286132800,36.5884017944335940,244.6707000732422000,121.9981002807617200,19.4585609436035160,30.4214706420898440,52,112,73,84,61,8030,2147547885,2148076617,2148341174,2147791332,2147331940,2147678281,2148147136,2148265700,3298,7,12,34774
1349367932,5803,167.5000000000000000,19.4738006591796880,36.5896987915039060,244.3908996582031200,121.4947967529296900,19.4739494323730470,30.4276790618896500,53,109,74,83,60,8037,2147562267,2148117869,2148426843,2147790034,2147338313,2147705819,2148192804,2148264256,2944,7,12,54160
1349368011,5802,163.7899932861328000,19.5330009460449220,36.6012992858886700,244.0113983154297000,119.7369995117187500,19.5276603698730470,30.4219799041748050,53,112,74,85,61,8037,2147576155,2148168713,2148539520,2147791917,2147341348,2147735926,2148255945,2148270372,2920,7,12,12412
1349368102,5802,159.7100067138672000,19.5515003204345700,36.5989990234375000,244.9270019531250000,118.9657974243164000,19.5512294769287100,30.3704299926757800,56,115,74,84,61,8034,2147595602,2148237147,2148678089,2147791808,2147352338,2147777462,2148330816,2148275245,2699,7,12,20997
1349368195,5805,155.8600006103515600,19.5841007232666000,36.6006011962890600,245.3598022460937500,117.9565963745117200,19.5820693969726560,30.3379497528076170,59,120,75,85,61,8028,2147619437,2148317924,2148842934,2147792603,2147359981,2147826020,2148419702,2148283785,1805,7,13,15305
1349368286,5801,151.8999938964843800,19.6215000152587900,36.6095008850097660,244.7971954345703000,116.7601013183593800,19.6186408996582030,30.3475704193115230,58,119,74,83,61,8034,2147654866,2148424877,2149045814,2147796626,2147373293,2147882761,2148525376,2148287972,1907,7,13,29047
1349368377,5801,147.8999938964843800,19.6721000671386720,36.6138000488281250,244.3623962402343800,114.9974975585937500,19.6725292205810550,30.3442802429199220,60,118,75,83,61,8032,2147696704,2148564928,2149329325,2147795136,2147399222,2147957120,2148670208,2148295424,2056,7,13,60691
1349368456,5804,144.4900054931640600,19.7278003692626950,36.6147994995117200,244.4382019042968800,113.3948974609375000,19.7215309143066400,30.3202400207519530,62,117,75,86,61,8028,2147717531,2148557449,2149268882,2147795803,2147393837,2147944822,2148618386,2148294491,2370,7,12,55768
1349368549,5804,140.6399993896484400,19.7387008666992200,36.6003990173339840,246.1976928710937500,112.9733963012695300,19.7344207763671880,30.2355403900146500,70,118,74,85,62,8023,2147799040,2148820406,2149794413,2147799305,2147435648,2148070555,2148867026,2148309686,2415,7,13,36766
1349368640,5805,136.7899932861328000,19.8388996124267580,36.6161003112793000,246.9761962890625000,109.7832031250000000,19.8319892883300780,30.1594791412353500,72,119,75,85,61,8029,2147854089,2148938331,2149968164,2147806628,2147457408,2148111552,2148928365,2148314953,2235,7,12,35754
1349368743,5803,132.4400024414062500,19.9349994659423830,36.6218986511230500,247.3800964355468800,106.7105026245117200,19.9259891510009770,30.1015205383300780,75,121,74,85,62,8028,2147997997,2149292315,2150621613,2147808950,2147513755,2148288109,2149246957,2148339062,2008,7,12,2628
1349368836,5801,128.5000000000000000,20.0895996093750000,36.6425018310546900,247.1755065917968800,101.8714981079101600,20.0741004943847660,30.0483093261718750,81,123,75,86,62,8014,2148113033,2149556397,2151078555,2147814043,2147551908,2148402825,2149434624,2148355520,2043,7,12,35543
1349368927,5802,125.0199966430664000,20.1912002563476560,36.6524009704589840,248.9528961181640600,98.4429626464843800,20.1790790557861330,29.9254608154296880,88,121,74,86,61,8012,2148261504,2149890322,2151648603,2147819602,2147600484,2148533842,2149652891,2148372882,1748,7,12,8927
1349369042,5802,121.2200012207031200,20.2898006439209000,36.6585006713867200,248.6345977783203000,95.2446975708007800,20.2770404815673830,29.8984298706054700,92,125,76,85,62,8008,2148445513,2150252050,2152200475,2147827300,2147670537,2148667620,2149848813,2148390217,1595,7,13,36249
1349369153,5801,117.7399978637695300,20.3698997497558600,36.6573982238769500,249.9781951904297000,92.6359329223632800,20.3569793701171880,29.8060207366943360,92,127,76,87,61,8011,2148729755,2150872146,2153223268,2147842322,2147769792,2148901376,2150256722,2148421705,1300,7,12,4120
1349369256,5803,113.4700012207031200,20.4510993957519530,36.6501998901367200,252.1309967041015600,89.6832427978515600,20.4474792480468750,29.6745796203613280,98,130,76,87,61,7984,2149135643,2151642907,2154381760,2147860352,2147901248,2149180598,2150670555,2148462875,883,7,12,49849
1349369347,5804,110.0800018310546900,20.5907001495361330,36.6557998657226560,253.3524017333984400,85.5439834594726600,20.5743999481201170,29.5689392089843750,109,131,76,88,61,7978,2149585764,2152475803,2155546413,2147877074,2148040429,2149440301,2151042514,2148499245,760,7,12,45696
1349369473,5804,105.2300033569336000,20.7098999023437500,36.6617012023925800,254.5986938476562500,81.1941604614257800,20.7078399658203120,29.4603004455566400,112,135,77,87,61,7964,2150743808,2154589997,2158368548,2147927250,2148383981,2150069933,2151930934,2148585316,3411,7,12,41205
1349369552,5803,101.1299972534179700,20.8687992095947270,36.6682014465332000,256.9685058593750000,76.7132415771484400,20.8453807830810550,29.3029003143310550,114,136,76,87,60,7960,2151994514,2156759542,2161035190,2147978651,2148772004,2150746971,2152849298,2148674368,3540,8,12,19108
1349369607,5803,98.3000030517578100,21.0366001129150400,36.6744003295898440,257.9285888671875000,71.3298873901367200,21.0107307434082030,29.1947097778320300,104,137,76,88,61,7962,2153126884,2158618139,2163275172,2148026752,2149115163,2151336365,2153622354,2148753920,3517,7,12,24232
1349369662,5804,95.7399978637695300,21.2196998596191400,36.6851997375488300,258.1984863281250000,65.1698837280273400,21.2000694274902340,29.1058692932128900,102,137,75,88,61,7963,2154289792,2160457883,2165361042,2148075830,2149466240,2151935616,2154421860,2148837641,2606,7,12,25400
1349369717,5803,93.3899993896484400,21.3684005737304700,36.6861000061035160,258.3333129882812500,60.6895599365234400,21.3378791809082030,29.0440406799316400,91,130,76,88,61,7977,2155479405,2162278985,2167408612,2148133778,2149857609,2152578834,2155232448,2148923721,2352,7,13,37536
1349369774,5805,91.3499984741211000,21.4437999725341800,36.6874008178710940,260.0909118652344000,57.7487602233886700,21.4283905029296880,28.9339408874511720,88,128,75,87,61,7984,2156164973,2163138477,2168149284,2148172196,2150070829,2152841865,2155386377,2148955401,2455,7,12,8069
1349369829,5803,89.6900024414062500,21.4895000457763670,36.6843986511230500,261.4790954589844000,56.0226593017578100,21.4815292358398440,28.8551597595214840,84,127,76,87,60,8004,2157391689,2165012818,2170281737,2148226240,2150576228,2153749686,2156601234,2149072969,2350,7,12,6256
1349369884,5804,88.3300018310546900,21.6100997924804700,36.7013015747070300,263.3121948242187500,52.0608291625976560,21.6035404205322270,28.7308406829834000,80,129,76,87,58,8001,2158395995,2166413604,2171719049,2148269924,2150953737,2154346450,2157254436,2149137572,2407,7,12,53506
1349369975,5803,86.4800033569336000,21.9761009216308600,36.7540016174316400,267.8176879882812500,42.7178993225097660,21.8915691375732420,28.4334907531738280,76,125,76,89,57,8010,2159789933,2168339428,2173770194,2148340224,2151609517,2155340077,2158333696,2149249709,1925,7,12,42391
1349370101,5804,83.8499984741211000,21.9759006500244140,36.7550010681152340,271.6976013183594000,40.2896003723144500,21.9664897918701170,28.2502708435058600,75,127,77,88,57,8034,2162228489,2171710921,2177405193,2148486061,2152800118,2157120411,2160230390,2149440749,1719,7,12,53435
1349370156,5805,81.3099975585937500,22.0778007507324220,36.7635002136230500,273.6301879882812500,37.2866516113281250,22.0591907501220700,28.1380290985107420,74,127,76,88,58,8021,2164667538,2174955245,2180793773,2148645037,2154020827,2158863625,2161980909,2149615908,1584,8,12,57833
1349370211,5801,78.8399963378906200,21.9976997375488280,36.7103996276855500,275.1384887695312500,38.7253799438476560,22.0147705078125000,28.0975799560546880,75,128,77,88,60,8006,2167961142,2179250761,2185094354,2148835885,2155589595,2161136292,2164354304,2149858194,1515,7,12,2727
1349370266,5799,76.6299972534179700,21.9834003448486330,36.6890983581543000,272.9681091308594000,39.2691383361816400,21.9979896545410160,28.1882801055908200,76,128,75,88,57,7994,2171352182,2183519561,2189420745,2149063853,2156988160,2163038838,2166230555,2150067126,1353,8,12,47594
1349370321,5801,74.6299972534179700,22.0813007354736330,36.6628990173339840,271.1318969726562500,36.8849906921386700,22.0715904235839840,28.2304992675781250,75,135,76,89,59,7990,2174597065,2187112192,2192411026,2149203812,2158331620,2164800804,2167850944,2150242870,1452,7,12,8204
1349370376,5800,72.9499969482421900,22.1972007751464840,36.6710014343261700,270.3904113769531000,34.4632797241210940,22.1463794708251950,28.2297992706298830,75,132,75,90,59,7990,2177421997,2190158052,2195066898,2149386742,2159551296,2166344594,2169271003,2150414829,1637,8,12,29397
1349370455,5804,70.3099975585937500,22.3936004638671880,36.6390991210937500,269.5125122070312500,26.4306392669677730,22.3946704864501950,28.1656703948974600,71,133,76,88,58,7977,2182968320,2196108260,2200085924,2149733979,2162216685,2169777554,2172445723,2150765604,2014,7,12,47067
1349370510,5806,68.2699966430664000,22.7346000671386720,36.6632995605468750,269.0232849121094000,17.0717792510986330,22.6843605041503900,28.0701904296875000,69,132,78,91,58,7978,2187341577,2200905252,2204601453,2150060205,2164450989,2172469065,2174872566,2151055680,1813,7,12,58550
1349370565,5803,66.8000030517578100,23.0221004486084000,36.7092018127441400,271.3818054199219000,7.9861249923706055,22.9660491943359380,27.8670692443847660,68,129,76,89,58,7975,2186559826,2198416859,2200377563,2149929042,2164959405,2172587090,2174271652,2150976676,1791,7,12,25458
1349370644,5803,65.6800003051757800,23.1947994232177730,36.7372016906738300,275.2253112792969000,1.2757660150527954,23.1744003295898440,27.6374607086181640,66,128,76,89,59,8005,2173335195,2178956361,2177134747,2148870500,2159928896,2164386075,2164346989,2149914404,1729,7,12,1699
1349370806,5803,63.1300010681152340,23.2838001251220700,36.6657981872558600,276.7723083496094000,-0.9509236216545105,23.2435894012451170,27.5517501831054700,63,128,77,88,56,7972,2176353526,2182039094,2180262610,2149180626,2162265718,2166869668,2166232274,2150122084,1325,8,12,27783
1349370873,5801,61.4199981689453100,23.5310001373291000,36.6559982299804700,271.4482116699219000,-9.3827600479125980,23.5058593750000000,27.6534004211425780,64,135,78,90,56,7953,2206934162,2221700571,2223664758,2151666002,2177281645,2187307245,2187306349,2152439643,1420,7,12,8667
1349370928,5804,60.3600006103515600,23.5629997253417970,36.6515998840332000,268.4530944824219000,-11.2035703659057620,23.5625495910644530,27.7478408813476560,63,133,76,88,57,7949,2209154980,2223910016,2225781101,2151954688,2178958601,2189101467,2188643904,2152628370,1216,6,12,56426
1349371066,5804,57.9199981689453100,23.7040996551513670,36.6389999389648440,267.1160888671875000,-15.7487096786499020,23.7041492462158200,27.7452507019042970,62,131,75,89,57,7932,2201403017,2211391405,2210315227,2151377124,2177099702,2185374674,2183723968,2152123739,1097,7,12,34222
1349371133,5805,55.9000015258789060,24.0196990966796880,36.6318016052246100,268.5441894531250000,-25.7665996551513670,24.0167102813720700,27.5679492950439450,61,132,76,89,58,7921,2218961920,2231923556,2230944987,2152948196,2188171702,2198791524,2196030793,2153548480,756,7,12,47336
1349371275,5803,53.1699981689453100,24.4122009277343750,36.6212005615234400,270.4440917968750000,-36.9609184265136700,24.3667392730712900,27.3591003417968750,60,131,77,91,55,7899,2220315145,2231821376,2229291520,2153414317,2188829458,2197447058,2192819035,2153310866,129,8,12,38111
1349371404,5802,52.9300003051757800,24.5123004913330080,36.6268997192382800,269.9602050781250000,-41.1265296936035160,24.4972000122070300,27.3276290893554700,60,133,75,90,55,7899,2239388187,2255180178,2254161472,2155321563,2201101165,2212936603,2207744146,2155007945,47,8,12,34712
1349371497,5805,50.6800003051757800,24.7901000976562500,36.6127014160156250,269.9643859863281000,-49.9290390014648440,24.7732791900634770,27.2217197418212900,59,132,76,90,54,7883,2246661376,2263090916,2263122020,2156984612,2208298331,2220082441,2213516873,2155956443,611,6,12,19561
1349371685,5804,48.5999984741210940,25.3369998931884770,36.5675010681152340,267.4663085937500000,-67.2353820800781200,25.3176898956298830,27.1107101440429700,59,134,76,89,57,7857,2254049060,2270166537,2268853833,2158027117,2215953828,2227667693,2219054043,2156622573,362,8,12,22672
1349371742,5806,46.7799987792968750,25.6315994262695300,36.5509986877441400,265.3258056640625000,-75.7070465087890600,25.5849895477294920,27.0925407409667970,59,131,77,89,56,7855,2258386185,2273918016,2272382171,2159228013,2220835849,2232335945,2222525312,2157238235,260,8,12,47038
1349372361,5803,44.8300018310546900,26.1711997985839840,36.4141006469726560,244.8374023437500000,-90.0409164428711000,26.0385208129882800,27.7564506530761720,58,131,73,90,55,7739,2279298294,2293623524,2291054582,2162100580,2234946962,2246889408,2234621321,2158946477,1227,8,12,45808
1349372633,5805,42.8699989318847660,26.7632007598876950,36.4564018249511700,243.8628997802734400,-112.9298019409179700,26.7661895751953120,27.5200500488281250,57,131,75,89,56,7658,2275685302,2287991067,2283914267,2162070573,2238476836,2248975296,2234025316,2158973531,767,6,12,37317
1349372989,5804,40.7200012207031250,27.1138000488281250,36.5018997192382800,239.7971038818359400,-124.0360031127929700,27.1208801269531250,27.5602703094482420,54,124,75,88,56,7627,2246954733,2252601728,2246265892,2158811328,2223105700,2226665142,2211013074,2156092644,3214,8,11,19803
1349373058,5803,38.5600013732910160,27.0377998352050780,36.4280014038085940,239.8536987304687500,-121.4570007324218800,27.0384197235107420,27.5890598297119140,54,124,74,88,57,7580,2293591890,2303957531,2299919725,2167771748,2270330742,2277167689,2253201115,2161705600,2566,8,12,31670